Location: Albergo Latemar
(46.4167°N, 11.6000°E)
Time: 01:56:13
(UTC+00:00)

Daily predictions for brighter satellites

Satellite Brightness Start Highest point End
(mag) Time Altitude Azimuth Time Altitude Azimuth Time Altitude Azimuth
ATLAS 2AS CENTAUR R/B 4.4 02:27:31 27° N 02:28:57 29° NNE 02:35:15 10° E
Cosmos 2082 Rocket 3.1 02:56:59 47° E 02:56:59 47° E 03:01:41 10° NE
CZ-4C R/B 4.0 03:00:04 23° N 03:00:04 23° N 03:03:11 10° NNE
MSX 4.4 02:55:49 10° NNE 03:01:27 53° E 03:01:46 53° ESE
USA 234 4.1 02:57:33 10° NE 03:03:05 36° N 03:03:05 36° N
Cosmos 1833 Rocket 3.5 03:15:03 42° NNE 03:15:03 42° NNE 03:18:44 10° NNE
Cosmos 1605 Rocket 4.4 03:07:20 10° S 03:13:25 61° E 03:19:27 10° NNE
SJ 16-02 3.2 03:20:41 17° SSE 03:23:11 29° E 03:26:59 10° NE
Cosmos 2112 Rocket 4.2 03:26:20 69° ENE 03:26:24 69° ENE 03:31:43 10° SSE
SL-16 R/B 3.8 03:23:51 17° N 03:27:25 32° NE 03:32:27 10° ESE
H-2A R/B 4.0 03:25:03 10° NNE 03:27:41 34° NNE 03:27:41 34° NNE
ATLAS 5 CENTAUR R/B 4.5 03:26:39 45° WNW 03:30:21 73° SW 04:08:30 10° SSE
Cosmos 1680 Rocket 3.6 03:34:13 69° SSE 03:34:13 69° SSE 03:38:52 10° SSE
Cosmos 1980 Rocket 2.1 03:34:05 86° SSW 03:34:05 86° SSW 03:39:41 10° SSE
Cosmos 2322 Rocket 3.7 03:33:11 14° N 03:37:17 32° NE 03:42:21 10° ESE
Cosmos 158 Rocket 4.4 03:36:04 40° NNE 03:37:30 55° ENE 03:42:18 10° SE
Lacrosse 5 rocket 3.7 03:40:34 13° NNE 03:40:34 13° NNE 03:41:26 10° NE
Cosmos 990 Rocket 4.5 03:43:21 10° S 03:48:25 59° ESE 03:53:32 10° NNE
NOSS 3-3 (A) 4.3 03:46:34 23° SSW 03:50:21 64° ESE 03:56:52 10° NE
NOSS 3-3 (C) 4.3 03:46:38 22° SSW 03:50:28 64° ESE 03:56:59 10° NE
Lacrosse 5 1.8 03:54:20 65° NW 03:54:20 65° NW 03:59:24 10° NE
BREEZE-M DEB (TANK) 3.8 03:55:24 34° SE 03:55:24 34° SE 03:58:02 10° ESE
Cosmos 839 Rocket 4.0 03:57:12 35° SW 04:00:16 72° NW 04:06:32 10° NNE
CZ-2C R/B 2.2 03:55:46 10° N 04:00:41 76° WNW 04:02:52 32° SSW
Cosmos 2058 2.9 03:58:44 22° S 04:01:24 85° E 04:05:38 10° N
ASTEX 1 3.3 04:00:36 10° S 04:05:32 72° W 04:10:33 10° N
CZ-4B R/B 3.4 04:02:40 10° NNE 04:05:09 42° NNE 04:05:09 42° NNE
SL-4 R/B 2.8 04:05:33 45° NNW 04:06:32 53° NNE 04:11:17 10° E
Meteor 1-31 Rocket 3.0 04:05:52 10° N 04:09:00 55° N 04:09:00 55° N
SKYMED 2 3.9 04:07:11 10° SSE 04:11:28 64° ENE 04:15:47 10° N
Cosmos 1697 Rocket 4.4 04:16:11 16° SW 04:16:11 16° SW 04:17:35 10° SSW
Gbstr 26 Del rocket 2.5 04:13:09 70° SW 04:13:33 83° SSE 04:17:17 10° ENE
Cosmos 1356 Rocket 3.6 04:15:44 51° WSW 04:15:44 51° WSW 04:19:30 10° S
Cosmos 1484 Rocket 3.2 04:12:13 10° NNE 04:16:13 64° E 04:20:12 10° S
Cosmos 1151 Rocket 4.3 04:12:04 10° N 04:16:14 41° ENE 04:20:22 10° SSE
Cosmos 1892 3.0 04:13:09 10° S 04:16:55 66° E 04:20:40 10° NNE
Cosmos 1076 Rocket 3.9 04:18:24 42° NW 04:18:24 42° NW 04:21:48 10° N
deb Kosmos-1763 4.3 04:19:59 52° NNW 04:19:59 52° NNW 04:23:08 10° NNE
Meteor 2-2 Rocket 4.4 04:17:32 29° NW 04:19:54 44° W 04:25:12 10° SSW
Cosmos 1898 Rocket 3.4 04:14:53 10° SSW 04:20:06 73° WNW 04:25:25 10° NNE
STARLINK-80 3.5 04:19:34 48° SW 04:20:29 75° SSE 04:24:19 10° ENE
ATLAS 2AS CENTAUR R/B 3.1 04:14:58 16° NW 04:21:20 72° NE 04:28:27 10° SE
Cosmos 1869 4.3 04:23:16 30° SW 04:23:16 30° SW 04:25:36 10° SSW
Cosmos 2100 Rocket 4.0 04:15:44 10° S 04:21:55 82° E 04:28:06 10° N
ALOS 3.1 04:23:13 10° NNE 04:27:47 51° E 04:32:19 10° S
Meteor 2-20 Rocket 4.4 04:23:23 10° NNW 04:29:32 71° W 04:35:39 10° S
Cosmos 1937 Rocket 3.3 04:25:50 10° SSW 04:30:59 79° WNW 04:36:10 10° NNE
STARLINK-46 4.4 04:34:10 23° N 04:34:24 23° N 04:36:53 10° ENE
Cosmos 1802 Rocket 4.2 04:30:13 10° S 04:36:38 82° E 04:43:05 10° N
MOS 1-B 4.4 04:31:08 10° NNE 04:36:59 86° ESE 04:42:47 10° SSW
Cosmos 1408 Rocket 4.0 04:33:57 10° S 04:38:10 61° E 04:42:28 10° NNE
In-Cosmos 22 Rocket 4.0 04:33:14 10° SSW 04:38:35 69° WNW 04:44:04 10° N
IDEFIX/ARIANE 42P 4.3 04:35:43 10° NNW 04:37:09 15° NNW 04:37:09 15° NNW
Cosmos 1825 3.4 04:35:46 10° SSE 04:39:20 43° E 04:42:56 10° NNE
Cosmos 2082 Rocket 3.0 04:38:54 27° W 04:40:30 31° NW 04:45:33 10° N
CZ-4B DEB 4.3 04:35:05 10° NNE 04:40:35 81° ESE 04:46:04 10° SSW
COSMOS 2455 2.8 04:35:58 16° NW 04:40:57 76° WSW 04:46:56 10° SSE
STARLINK-48 3.4 04:40:19 25° SW 04:42:31 85° SSE 04:46:27 10° ENE
USA 234 4.1 04:39:33 10° ENE 04:45:31 39° NNE 04:50:25 15° NW
COBE Rocket 4.4 04:41:20 10° SSW 04:46:10 41° W 04:50:58 10° NNW
Cosmos 858 Rocket 4.5 04:41:22 10° SW 04:46:28 57° WNW 04:51:36 10° NNE
CZ-4C R/B 4.1 04:45:15 13° NW 04:48:19 18° N 04:52:46 10° NE
Cosmos 2061 Rocket 4.0 04:42:26 10° S 04:48:42 88° E 04:54:57 10° N
STARLINK-67 3.5 04:48:12 30° NNW 04:48:58 38° NNE 04:51:28 10° E
Okean 3 Rocket 3.7 04:45:28 10° SSW 04:49:53 51° WNW 04:54:17 10° N
Cosmos 1766 Rocket 3.5 04:47:15 10° SSW 04:51:32 63° W 04:55:53 10° N
ATLAS CENTAUR R/B 2.6 04:47:12 10° SSW 04:51:59 52° ESE 04:56:39 10° NE
STARLINK-52 4.3 04:50:57 24° NW 04:52:04 30° N 04:55:14 10° NE
PSLV R/B 4.0 04:49:03 10° N 04:52:44 45° WNW 04:56:29 10° SW
STARLINK-43 3.6 04:51:35 28° W 04:53:15 49° NNW 04:56:53 10° NE
Cosmos 2173 Rocket 4.0 04:51:31 10° SSW 04:57:41 60° WNW 05:03:49 10° N
STARLINK-61 4.0 04:53:46 10° SW 04:57:45 62° SE 05:01:45 10° ENE
Cosmos 1833 Rocket 4.1 04:56:48 17° WNW 04:57:53 18° NW 05:01:43 10° N
Cosmos 2151 3.2 04:55:09 10° SSW 04:59:18 47° WNW 05:03:30 10° N
COSMO-SKYMED 1 3.0 04:55:26 10° S 04:59:31 41° W 05:03:40 10° NNW
STARLINK-60 4.5 05:00:12 19° NW 05:01:38 26° N 05:04:32 10° NE
SJ 16-02 2.1 04:57:52 10° WSW 05:01:42 30° WNW 05:05:38 10° N
Cosmos 1933 3.5 04:59:46 10° N 05:03:49 73° E 05:07:48 10° SSE
H-2A R/B 4.2 05:01:45 10° NNW 05:04:14 16° NW 05:04:14 16° NW
STARLINK-62 4.5 05:01:01 10° SW 05:05:02 51° SE 05:09:03 10° ENE
STARLINK-29 4.4 05:04:21 19° NW 05:06:04 27° N 05:09:07 10° NE
STARLINK-63 4.5 05:02:35 10° SW 05:06:36 50° SE 05:10:37 10° ENE
Shenzhou-11 Module 3.3 05:06:37 16° WSW 05:08:04 25° SSW 05:10:23 10° SE
STARLINK-72 4.5 05:05:50 10° SW 05:09:51 51° SE 05:13:53 10° ENE
SL-16 R/B 2.5 05:06:18 10° NW 05:11:44 48° WSW 05:17:09 10° S
Cosmos 2360 Rocket 2.4 05:06:23 10° NNW 05:12:06 79° ENE 05:17:47 10° SSE
Cosmos 2233 Rocket 4.5 05:06:04 10° S 05:12:15 67° E 05:18:32 10° NNE
STARLINK-59 4.3 05:09:10 10° SW 05:13:13 56° SE 05:17:17 10° ENE
Cosmos 1864 Rocket 4.4 05:08:33 10° SSW 05:14:40 78° W 05:20:53 10° N
Radarsat Rocket 4.4 05:08:55 10° NNE 05:14:46 68° ESE 05:20:39 10° S
BREEZE-M DEB (TANK) 3.8 05:04:39 13° WNW 05:14:48 53° SW 05:18:24 10° SE
STARLINK-57 4.2 05:10:52 10° SW 05:14:56 58° SE 05:19:01 10° ENE
Cosmos 1980 Rocket 3.8 05:15:56 13° W 05:17:06 14° W 05:19:50 10° SW
Meteor 2-3 Rocket 4.3 05:12:16 10° S 05:17:56 66° E 05:23:42 10° NNE
Cosmos 372 Rocket 3.9 05:12:55 10° SSW 05:18:05 77° WNW 05:23:14 10° NNE
STARLINK-28 4.1 05:14:07 10° SW 05:18:12 61° SE 05:22:18 10° ENE
STARLINK-53 4.1 05:14:26 10° SW 05:18:32 62° SE 05:22:38 10° ENE
Cosmos 2298 Rocket 4.0 05:13:29 10° SSW 05:18:46 69° WNW 05:24:05 10° NNE
Lacrosse 5 rocket 2.7 05:16:19 10° NW 05:19:20 24° NNE 05:22:20 10° ENE
STARLINK-75 3.9 05:15:42 10° SW 05:19:48 69° SE 05:23:56 10° ENE
Cosmos 2322 Rocket 2.5 05:16:07 10° NW 05:21:31 47° WSW 05:26:54 10° S
STARLINK-54 4.0 05:17:26 10° SW 05:21:33 65° SE 05:25:40 10° ENE
SL-27 R/B 4.3 05:21:58 12° NW 05:21:58 12° NW 05:23:11 10° NNW
Helios 1A Rocket 3.1 05:19:07 10° N 05:23:06 50° WNW 05:27:03 10° SW
Cosmos 2228 Rocket 3.2 05:18:46 10° N 05:23:23 90° NE 05:27:58 10° S
COSMOS 2487 2.3 05:20:31 10° SSW 05:23:56 63° WNW 05:27:24 10° NNE
Okean O Rocket 1.7 05:20:08 10° N 05:24:22 52° WNW 05:28:35 10° SSW
Cosmos 1437 2.5 05:22:29 10° SSW 05:25:31 69° WNW 05:28:35 10° N
STARLINK-37 3.9 05:21:25 10° SW 05:25:33 70° SE 05:29:42 10° ENE
STARLINK-55 4.0 05:22:19 10° SW 05:26:26 69° SSE 05:30:34 10° ENE
STARLINK-24 3.9 05:23:16 10° SW 05:27:24 71° SSE 05:31:33 10° ENE
STARLINK-34 3.9 05:24:03 10° SW 05:28:10 72° SE 05:32:18 10° ENE
STARLINK-81 4.0 05:25:32 10° SW 05:29:39 69° SE 05:33:47 10° ENE
Cosmos 1048 Rocket 4.1 05:24:49 10° NNW 05:30:12 72° WSW 05:35:31 10° SSE
CZ-2C R/B 4.4 05:26:59 10° SSE 05:31:24 57° ENE 05:35:55 10° N
NOSS 3-4 (A) 4.0 05:25:09 10° NW 05:32:06 65° WSW 05:39:43 10° SSE
NOSS 3-4 (C) 4.0 05:25:15 10° NW 05:32:13 66° WSW 05:39:49 10° SSE
STARLINK-77 3.9 05:28:49 10° SW 05:32:56 72° SE 05:37:05 10° ENE
STARLINK-25 3.9 05:30:34 10° SW 05:34:42 75° SSE 05:38:51 10° ENE
Abrixas rocket 3.2 05:32:01 10° SW 05:34:52 41° SSE 05:37:45 10° E
STARLINK-71 3.7 05:32:23 10° SW 05:36:32 82° SSE 05:40:42 10° ENE
Cosmos 1408 3.6 05:34:49 10° SW 05:37:57 25° WNW 05:41:05 10° NNW
STARLINK-79 3.8 05:33:49 10° SW 05:37:57 78° SSE 05:42:06 10° ENE
CZ-2C R/B 4.2 05:36:23 10° NW 05:38:01 12° NW 05:39:37 10° WNW
Lacrosse 5 3.0 05:33:45 10° WNW 05:38:06 28° NNW 05:42:27 10° NE
STARLINK-78 3.8 05:35:30 10° SW 05:39:39 81° SSE 05:43:48 10° ENE
STARLINK-49 3.7 05:38:49 10° SW 05:42:58 84° SSE 05:47:08 10° ENE
Cosmos 1782 3.1 05:39:40 10° N 05:43:41 71° E 05:47:38 10° SSE
STARLINK-27 3.7 05:40:26 10° WSW 05:44:34 86° SSE 05:48:44 10° ENE
Cosmos 1725 Rocket 4.3 05:40:08 10° SSW 05:46:08 48° WNW 05:52:14 10° N
STARLINK-74 3.7 05:42:09 10° WSW 05:46:18 88° SE 05:50:27 10° ENE
SL-4 R/B 2.6 05:41:40 10° WNW 05:46:29 64° SSW 05:51:11 10° SE
Cosmos 2322 3.8 05:41:02 10° NNW 05:46:46 87° ENE 05:52:26 10° SSE
Cosmos 1238 Rocket 4.0 05:42:24 10° SSW 05:49:00 68° W 05:55:04 10° N
